Regional Weather Roundup
Issued by NWS

Home | Current Version | Previous Version | Graphics & Text | Print | Product List | Glossary On
Versions: 1 2 3 4 5 6 7 8 9 10 11 12 13 14 15 16 17 18 19 20 21 22 23 24 25 26 27 28 29 30 31 32 33 34 35 36 37 38 39 40 41 42 43 44 45 46 47 48 49 50
000
ASUS43 KLSX 300059
RWRMO

WEATHER SUMMARY FOR MISSOURI
NATIONAL WEATHER SERVICE SPRINGFIELD MO
800 PM CDT SAT APR 29 2017

NOTE: "FAIR" INDICATES FEW OR NO CLOUDS BELOW 12,000 FEET WITH NO
       SIGNIFICANT WEATHER AND/OR OBSTRUCTIONS TO VISIBILITY.
       CURRENT SKY AND/OR WEATHER CONDITIONS ARE NOT AVAILABLE FOR
       CHILLICOTHE AND FARMINGTON.

MOZ001>031-035>038-043-044-053-054-300200-
...NORTHERN AND WESTERN MISSOURI...

CITY           SKY/WX    TMP DP  RH WIND       PRES   REMARKS
KANSAS CTY INT LGT RAIN  44  42  93 NE21      29.81F
KANSAS C DTWN  LGT RAIN N/A N/A N/A E16       29.81S
LEE`S SUMMIT   LGT RAIN  45  45 100 E17G26    29.80F
ST JOSEPH      LGT RAIN  45  44  97 NE17G23   29.85S FOG
CHILLICOTHE      N/A     44  42  93 NE9       29.90F
KIRKSVILLE     LGT RAIN  43  30  60 NE17      29.92R

$$
MOZ066>068-077>081-088>096-101>105-300200-
...SOUTHWEST MISSOURI...

CITY           SKY/WX    TMP DP  RH WIND       PRES   REMARKS
SPRINGFIELD    TSTM      63  62  97 SE21G26   29.71F
JOPLIN         TSTM      58  58 100 E14G29    29.62F
BRANSON        CLOUDY    63  63 100 S3        29.74R THUNDER FOG

$$
MOZ032>034-039>042-045>050-055>058-069>072-300200-
...CENTRAL MISSOURI...

CITY           SKY/WX    TMP DP  RH WIND       PRES   REMARKS
COLUMBIA       LGT RAIN  49  48  97 SE14G24   29.83R
JEFFERSON CITY LGT RAIN  52  49  89 SE15      29.85R
ROLLA          HVY RAIN  54  32  43 E12       29.84F
SEDALIA        LGT RAIN  50  50 100 E9        29.81R
OSAGE BEACH    HVY RAIN  53  53 100 E5        29.84R FOG

$$
MOZ051-052-059>065-300200-
...EAST CENTRAL MISSOURI...

CITY           SKY/WX    TMP DP  RH WIND       PRES   REMARKS
ST LOUIS INTL  TSTM      53  51  93 N10       29.88S FOG
SPIRIT OF STL  RAIN      52  51  97 NW3       29.89S FOG
ST CHARLES     RAIN      50  49  96 N3        29.90R FOG

$$
MOZ072>076-082>087-097>100-106>115-300200-
...SOUTH CENTRAL AND SOUTHEAST MISSOURI...

CITY           SKY/WX    TMP DP  RH WIND       PRES   REMARKS
CAPE GIRARDEAU CLOUDY    68  60  75 S5        29.87R THUNDER
FARMINGTON     TSTM      62  61  96 CALM      29.87S FOG
POPLAR BLUFF   LGT RAIN  68  62  81 N17G24    29.82R

$$




USA.gov is the U.S. government's official web portal to all federal, state and local government web resources and services.